Regional Weather Roundup
Issued by NWS Bismarck, ND

Home | Current Version | Previous Version | Text Only | Print | Product List | Glossary On
Versions: 1 2 3 4 5 6 7 8 9 10 11 12 13 14 15 16 17 18 19 20 21 22 23 24 25 26 27 28 29 30 31 32 33 34 35 36 37 38 39 40 41 42 43 44 45 46 47 48 49 50
000
ASUS43 KBIS 181710
RWRBIS

NWR BROADCAST TEXT
NATIONAL WEATHER SERVICE BISMARCK ND
1100 AM CST SAT FEB 18 2017

NOTE: "FAIR" INDICATES FEW OR NO CLOUDS BELOW 12,000 FEET WITH NO
SIGNIFICANT WEATHER AND/OR OBSTRUCTIONS TO VISIBILITY.


CITY           SKY/WX    TMP DP  RH WIND       PRES   REMARKS
WILLISTON      FAIR      34  30  85 N5        29.71S
MINOT          FAIR      38  31  76 NW8       29.72S
MINOT AFB      NOT AVBL
BISMARCK       FAIR      34  31  88 E3        29.76R
DICKINSON      CLOUDY    37  31  78 E8        29.66S
GARRISON         N/A     37  30  75 CALM      29.72S
HETTINGER ARPT CLOUDY    40  29  64 E12       29.66F
JAMESTOWN      FAIR      41  33  73 NW5       29.74S
CARRINGTON     FAIR      36  32  87 W9        29.76S
HAZEN          PTSUNNY  N/A N/A N/A CALM      29.75S
MANDAN         FAIR      36  32  87 NE6       29.75S
RUGBY            N/A     27  27 100 W5        29.73S
STANLEY        FAIR      36  36 100 N5        29.73S
TIOGA          FAIR      32  32 100 E3        29.72F
WATFORD CITY   FAIR      32  30  93 N3        29.70S
$$

CITY           SKY/WX    TMP DP  RH WIND       PRES   REMARKS
GRAND FORKS    FAIR      40  31  70 W10       29.71R
GRAND FORKS AF FAIR      42  33  71 NW12      29.72R
DEVILS LAKE    FAIR      34  30  85 NW10      29.73F
FARGO          FAIR      43  36  76 SW9       29.75R
CAVALIER       FAIR      39  32  75 W17       29.68R
GRAFTON        FAIR      37  34  87 W17       29.70R
GWINNER        FAIR      43  37  81 SW12      29.78S
ROLLA          FAIR      37  32  81 NW6       29.72R
$$

CITY           SKY/WX    TMP DP  RH WIND       PRES   REMARKS
ABERDEEN       FAIR      43  35  73 CALM      29.78F
MOBRIDGE       FAIR      39  31  72 E6        29.70F
BUFFALO          N/A     48  27  44 SE12      29.53F
RAPID CITY     FAIR      50  29  44 S17       29.64S
GLASGOW        FAIR      37  32  82 E9        29.63S
SIDNEY         FAIR      37  32  82 N9        29.68F
WOLF POINT     FAIR      34  30  85 E12       29.68S
GLENDIVE       CLOUDY    36  30  79 NE10      29.63F
MILES CITY     PTSUNNY   40  31  70 NE8       29.58S
BAKER          PTSUNNY   43  30  60 SE15      29.59F
$$

CITY           SKY/WX    TMP DP  RH WIND       PRES   REMARKS
BILLINGS       PTSUNNY   40  27  59 SW8       29.56S
GREAT FALLS    CLOUDY    36  26  67 E5        29.50F
REGINA         CLOUDY    34  32  93 SW3       29.72R
ESTEVAN        PTSUNNY   30  27  86 NW3       29.72F
$$





USA.gov is the U.S. government's official web portal to all federal, state and local government web resources and services.